Location: Grust
(42.8833°N, 0.0333°W)
Time: 14:35:47
(UTC+00:00)

H-2A R/B - Pass Details

Date: 25 October 2020
Orbit: 528 x 652 km, 98.3° (Epoch: 24 November)

Event Time Altitude Azimuth Distance (km) Brightness Sun altitude
Rises 17:23:40 0° 182° (S) 2,894 6.2 -4.7°
Reaches altitude 10° 17:25:55 10° 190° (S) 2,008 5.5 -5.1°
Maximum altitude 17:30:05 42° 261° (W) 918 4.2 -5.9°
Drops below altitude 10° 17:34:23 10° 333° (NNW) 2,063 5.5 -6.7°
Sets 17:36:44 0° 340° (NNW) 2,984 6.2 -7.1°
